sat.trackr.live / text

‹ back to catalog

STARLINK-5579

NORAD 55746 · 2023-028F

PAYLOAD ACTIVE UNKNOWN

§ Identity

Operator
Country
US
Launch date
2023-03-03
Launch site
AFWTR
Launch vehicle
Mass (kg)
RCS (m²)

Purposes: comms

External: N2YO · Heavens-Above · Gunter

§ Orbital elements

Epoch: 2026-05-25T03:32:05.368704Z

Period
96.11 min
Inclination
70.0007°
Eccentricity
0.0002671
Mean motion
14.98331452 rev/d
Perigee alt
570.2 km
Apogee alt
573.9 km
Semi-major
6,950.2 km
B*
3.2125e-5
RAAN
51.6473°
Arg perigee
270.3397°
Mean anomaly
89.7456°
Rev number
17,749

§ Raw data

STARLINK-55791 55746U 23028F   26145.14728436  .00000290  00000+0  32125-4 0  99922 55746  70.0007  51.6473 0002671 270.3397  89.7456 14.98331452177493

JSON: /api/v1/satellites/55746 · /tle

For live sub-satellite position, see the globe view (requires WebGL).

§ Visibility from observer

Set your observer location to see the next 7 days of passes ≥ 10°. The values pass through the URL so the page stays shareable.

No JS? Fill the form by hand. The geolocation button needs JavaScript.